SCP
2 3 3 2 2 1 1 1 1 2 3 3 3 2 2 2 2 2 2 2 2 1 1 1 1 1 1 1 1 1 0 0 1 1 1 1 1 1 1 1 1 1 0
2 3 3 3 2 1 1 1 1 1 2 3 3 2 2 2 2 2 2 2 2 2 1 1 1 0 1 1 1 0 0 0 1 1 1 1 1 1 0 0 1 1 1
2 3 3 3 2 1 1 1 0 1 2 3 3 2 2 1 1 1 1 2 2 2 1 1 1 0 0 1 0 0 0 0 0 1 1 1 1 0 0 0 0 1 1
2 3 3 3 2 2 1 1 0 1 1 2 2 2 2 1 1 1 1 1 2 2 2 1 1 0 0 0 0 0 0 0 0 1 1 0 0 0 0 0 0 0 0
1 2 3 3 3 2 1 1 0 0 1 2 2 2 1 1 1 1 1 1 1 1 1 1 1 1 0 0 0 0 0 0 0 0 0 0 0 0 0 0 0 0 0
1 1 3 4 4 3 2 1 1 1 1 1 1 1 1 1 1 1 1 1 1 1 1 1 1 1 0 0 0 0 0 0 0 0 0 0 0 0 0 0 0 0 0
0 1 2 3 4 4 3 2 1 1 1 1 1 1 1 1 1 0 0 0 0 0 0 1 0 0 0 0 0 0 0 0 0 0 0 0 0 0 0 0 0 0 0
0 0 1 1 2 3 3 3 2 2 1 1 1 1 0 0 0 0 0 0 0 0 0 0 0 0 0 0 0 0 0 0 0 0 0 0 0 0 0 0 0 0 0
0 0 0 0 1 1 2 2 2 2 2 1 1 1 0 0 0 0 0 0 0 0 0 0 0 0 0 0 0 0 0 0 0 0 0 0 0 0 0 0 0 0 0
0 0 0 0 0 0 1 1 1 2 2 2 1 1 1 1 1 1 0 0 0 0 0 0 0 0 0 0 0 0 0 0 0 0 0 0 0 0 0 0 0 0 0
0 0 0 0 0 0 0 1 1 1 1 1 1 1 1 1 1 1 0 0 0 0 0 0 0 0 0 0 0 0 0 0 0 0 0 0 0 0 0 0 0 0 0
0 0 0 0 1 1 1 1 1 1 1 1 1 1 1 1 1 0 0 0 0 0 0 0 0 0 0 0 0 0 0 0 0 0 0 0 0 0 0 0 0 0 0
0 0 0 0 1 1 1 1 1 1 1 1 1 1 1 1 1 1 0 0 0 0 0 0 0 0 0 0 0 0 0 0 0 0 0 0 0 0 0 0 0 0 0
0 0 0 0 0 0 1 1 1 1 0 0 0 0 1 1 1 1 1 0 0 0 0 0 0 0 0 0 0 0 0 0 0 0 0 0 0 0 0 0 0 0 0
0 0 0 0 0 0 1 1 1 1 0 0 0 0 0 0 1 1 1 1 0 0 0 0 0 0 0 0 0 0 0 0 0 0 0 0 0 0 0 0 0 0 0
0 0 0 0 0 0 0 0 0 0 0 0 0 0 0 0 0 0 1 1 1 0 0 0 0 0 0 0 0 0 0 0 0 0 0 0 0 0 0 0 0 0 0
0 0 0 0 0 0 0 0 0 0 0 0 0 0 0 0 0 0 0 1 1 1 0 0 1 0 0 0 0 0 0 0 0 0 0 0 0 0 0 0 0 0 0
0 0 0 0 0 0 0 0 0 0 0 0 0 0 0 0 0 0 0 0 0 0 0 1 1 1 0 0 0 0 0 0 0 0 0 0 0 0 0 0 0 0 0
0 0 0 0 0 0 0 0 0 0 0 0 0 0 0 0 0 0 0 0 0 0 0 1 1 1 0 0 0 0 0 0 0 0 0 0 0 0 0 0 0 0 0
0 0 0 0 0 0 0 0 0 0 0 0 0 0 0 0 0 0 0 0 0 0 0 1 1 0 0 0 0 0 0 0 0 0 0 0 0 0 0 0 0 0 0
0 0 0 0 0 0 0 0 0 0 0 0 0 0 0 0 0 0 0 0 0 0 0 0 0 0 0 0 0 0 0 0 0 0 0 0 0 0 0 0 0 0 0
0 0 0 0 0 0 0 0 0 0 0 0 0 0 0 0 0 0 0 0 0 0 0 0 0 0 0 0 0 0 0 0 0 0 0 0 0 0 0 0 0 0 0
0 0 0 0 0 0 0 0 0 0 0 0 0 0 0 0 0 0 0 0 0 0 0 0 0 0 0 0 0 0 0 0 0 0 0 0 0 0 0 0 0 0 0
0 0 0 0 0 0 0 0 0 0 0 0 0 0 0 0 0 0 0 0 0 0 0 0 0 0 0 0 0 0 0 0 0 0 0 0 0 0 0 0 0 0 0
0 0 0 0 0 0 0 0 0 0 0 0 0 0 0 0 0 0 0 0 0 0 0 0 0 0 0 0 0 0 0 0 0 0 0 0 0 0 0 0 0 0 0
0 0 0 0 0 0 0 0 0 0 0 0 0 0 0 0 0 0 0 0 0 0 0 0 0 0 0 0 0 0 0 0 0 0 0 0 0 0 0 0 0 0 0
Wind_Speed
3 3 3 3 4 4 4 4 4 3 2 1 1 1 1 1 1 1 1 1 1 0 1 1 1 0 1 2 2 2 3 2 2 2 2 1 1 1 1 1 1 1 1
4 3 4 3 3 4 4 4 4 4 2 1 2 2 2 1 1 1 2 1 1 1 0 1 1 1 1 1 2 3 2 2 2 2 3 1 0 0 1 1 1 1 1
4 4 4 4 3 4 4 4 5 4 3 2 1 1 1 1 1 2 2 2 1 1 1 1 1 1 1 2 2 3 3 3 2 2 3 3 3 1 0 1 1 1 1
4 3 4 4 4 4 4 4 4 4 3 2 0 0 0 1 2 2 2 2 2 1 1 1 1 2 2 2 2 2 2 4 3 2 1 1 2 3 1 1 1 1 2
4 4 4 4 4 4 4 4 4 4 3 2 1 1 1 1 1 1 2 2 2 1 1 1 2 2 2 2 3 2 2 3 3 3 2 1 0 1 2 2 2 1 1
4 4 4 4 4 4 4 4 4 4 3 2 1 1 1 1 1 2 2 2 2 1 1 2 2 2 2 3 3 3 3 4 3 2 2 2 3 2 2 2 2 2 2
4 4 5 4 5 5 5 4 4 5 4 2 2 2 2 2 2 3 2 2 2 2 2 2 2 2 2 3 3 3 3 4 4 4 3 3 2 2 2 2 2 1 1
4 4 5 4 4 5 5 4 5 5 4 3 3 2 2 2 2 2 2 2 2 3 3 3 2 2 2 3 3 3 3 3 4 4 4 3 2 2 2 3 3 2 1
5 5 5 4 4 4 5 5 5 4 4 4 3 3 2 3 3 2 2 2 2 2 3 3 3 2 2 2 3 3 4 4 4 4 4 3 2 2 2 2 3 4 3
7 6 5 5 5 4 5 5 4 4 4 3 3 3 3 3 3 2 3 3 2 2 3 3 3 3 2 2 2 3 3 4 4 3 4 3 2 2 2 2 2 2 3
7 6 5 5 5 5 5 5 5 5 5 4 3 3 3 3 3 2 2 3 3 3 3 3 3 3 3 2 3 3 3 4 4 4 4 4 3 3 2 2 2 2 2
7 6 5 5 5 5 6 5 5 5 5 5 4 4 4 4 3 3 3 3 3 3 3 3 3 3 3 3 4 4 4 4 5 5 5 5 3 4 3 3 3 3 3
7 7 6 6 6 5 5 6 6 6 5 5 4 4 4 4 4 4 4 3 3 3 3 3 4 3 3 3 4 4 4 4 4 5 6 5 5 4 3 4 4 3 2
7 7 7 6 6 6 5 6 6 6 6 5 4 4 4 4 4 4 4 3 3 3 3 3 4 4 3 4 4 4 4 4 4 4 5 5 6 6 5 4 4 3 3
8 8 8 7 7 7 6 6 6 6 6 6 5 4 5 4 5 5 4 4 4 4 3 3 4 3 3 3 4 4 4 5 5 4 4 5 5 6 5 4 4 4 3
9 8 8 8 8 8 8 7 7 7 6 6 5 5 5 5 5 5 5 4 4 3 3 3 4 4 4 6 7 5 4 5 5 5 4 4 5 5 6 7 6 6 5
8 8 8 8 8 8 7 7 7 6 6 6 6 6 5 5 5 6 5 4 4 4 3 3 3 4 5 7 8 8 5 4 5 5 4 4 4 5 4 5 7 7 8
8 8 8 8 8 7 7 6 6 5 5 6 6 6 6 6 6 6 6 5 4 4 3 4 4 4 5 7 8 7 4 4 5 5 5 5 4 5 4 4 5 5 5
7 7 7 7 7 7 6 6 5 5 5 6 6 6 6 6 6 6 6 5 4 4 4 4 4 4 5 7 8 7 3 3 4 4 4 4 5 7 7 5 5 5 5
6 6 7 6 6 6 6 5 6 5 6 6 7 6 6 6 6 6 6 5 4 4 4 4 4 4 5 7 7 6 3 3 3 3 4 7 6 7 8 6 5 6 5
7 6 6 6 6 6 5 5 6 6 6 7 6 6 6 6 6 5 5 5 5 4 4 4 4 4 5 7 7 7 3 3 4 3 3 4 7 8 8 7 6 7 5
7 6 6 6 6 5 5 6 6 7 6 6 6 6 6 5 5 5 5 4 4 4 4 4 4 3 4 6 7 7 7 6 4 4 3 4 7 8 9 7 7 7 5
6 6 6 7 7 5 4 6 7 6 6 6 6 6 6 5 5 4 5 4 3 3 4 3 4 4 3 4 8 8 8 8 5 4 6 6 7 7 6 7 8 6 3
6 5 6 6 7 6 6 6 7 6 5 6 6 5 5 5 4 4 4 3 3 3 4 4 4 4 4 4 4 4 4 6 5 4 5 6 6 5 5 5 4 3 3
6 5 5 7 8 7 6 6 6 5 5 5 5 5 4 4 4 4 3 4 3 4 4 4 4 4 5 6 9 6 4 3 4 4 2 2 2 2 2 2 2 2 2
5 6 6 7 7 6 7 7 6 5 5 5 4 4 3 3 3 4 4 6 6 8 9 8 7 6 8 11 10 10 8 8 7 4 2 2 2 3 3 3 3 3 3
Wind_Direction
297 316 324 332 341 343 340 335 336 325 341 321 307 296 291 297 318 332 331 320 323 305 158 146 157 146 203 180 160 151 144 141 138 121 118 63 91 150 166 165 154 138 130
313 319 327 338 336 329 329 332 329 319 315 288 270 258 263 275 279 332 339 326 322 311 196 147 182 186 207 166 162 149 154 172 162 147 151 150 194 167 161 161 168 168 153
282 297 313 318 323 323 322 320 317 313 316 326 329 341 339 322 332 343 332 320 296 281 272 174 177 192 186 191 187 171 167 178 195 168 162 164 192 187 231 186 179 175 175
289 292 302 312 310 309 314 316 313 312 317 340 11 51 297 289 296 294 299 309 286 264 278 204 176 207 199 195 200 198 189 179 188 192 198 183 157 165 186 229 207 196 196
290 289 297 298 305 312 316 317 315 314 319 329 295 211 251 270 294 300 304 307 310 291 288 242 200 214 219 206 201 204 200 190 196 189 180 148 103 152 165 202 216 228 223
310 306 308 312 317 322 324 327 324 318 320 321 319 266 255 278 296 303 288 298 305 291 298 277 233 215 233 222 208 200 208 208 205 202 183 179 177 178 172 194 210 228 236
309 313 316 319 322 324 328 327 321 318 319 321 320 299 264 237 237 252 264 286 287 283 267 276 254 235 243 246 219 208 219 217 205 204 208 203 202 177 174 175 194 227 265
314 310 309 310 310 316 322 318 311 312 314 317 317 312 305 268 248 250 252 254 258 269 267 251 256 256 242 248 229 214 224 230 220 217 207 206 214 192 183 178 170 192 232
315 310 316 318 319 321 321 311 307 313 314 317 317 319 319 314 290 271 263 260 272 281 281 259 255 255 244 240 232 223 220 226 223 219 210 211 219 212 201 189 180 177 204
325 321 322 320 323 324 319 322 320 313 314 320 321 322 314 304 298 292 289 280 280 277 278 268 259 258 248 240 230 237 228 227 228 215 210 216 221 212 212 203 201 193 198
321 317 317 322 326 329 327 331 334 328 325 326 324 327 323 318 310 299 291 292 296 286 275 270 254 250 247 241 232 241 238 232 229 218 212 221 216 209 210 204 203 208 195
323 324 327 334 335 334 335 336 334 328 326 326 323 325 327 328 322 314 302 298 287 286 283 279 260 250 249 247 235 237 245 236 227 220 215 218 214 217 214 208 212 217 211
331 336 341 340 336 334 333 330 332 329 328 328 328 331 331 326 320 309 306 302 295 289 285 286 264 252 247 251 249 241 242 236 233 223 216 214 206 217 220 216 215 217 226
332 338 338 336 334 332 330 330 332 333 333 331 330 329 326 321 316 311 307 300 292 288 284 282 273 261 254 251 246 246 244 235 236 235 223 214 212 216 215 217 217 213 216
335 336 333 331 332 332 330 329 328 330 330 331 329 325 326 326 321 315 311 302 297 293 287 286 283 277 259 251 244 239 239 231 230 236 231 224 226 228 224 225 215 207 212
324 326 327 328 328 326 323 322 322 322 326 327 325 322 328 327 323 319 312 303 299 296 289 281 282 282 278 281 276 267 245 235 230 233 232 228 228 233 239 243 237 227 219
315 319 320 316 314 314 314 311 313 319 324 326 328 327 326 323 322 320 317 306 299 297 291 282 281 277 285 295 289 280 256 237 233 230 229 232 233 231 225 241 246 242 240
314 314 314 313 313 312 313 309 313 316 318 321 322 324 327 323 322 321 320 316 305 296 295 298 293 289 295 304 298 286 264 250 243 234 229 225 224 228 226 225 234 237 237
297 299 301 303 307 310 314 314 314 316 318 317 316 317 319 319 319 317 314 312 311 304 302 301 296 295 298 304 301 288 262 257 252 244 240 236 227 238 237 229 231 239 245
303 304 306 308 309 311 315 317 315 316 312 310 309 310 310 311 312 308 308 309 307 302 300 299 296 291 290 298 300 296 267 264 266 257 246 251 251 245 235 223 221 234 240
303 306 307 309 308 312 316 313 312 308 307 310 310 313 312 308 304 302 306 309 308 308 302 301 304 301 297 297 298 297 277 262 265 263 256 254 261 255 246 241 234 240 241
311 312 312 311 312 316 317 312 307 307 311 311 311 313 313 309 311 310 314 316 317 315 311 310 312 309 303 307 299 298 296 290 272 268 261 263 268 262 254 246 244 244 242
307 311 308 309 312 313 310 304 306 313 315 313 311 311 312 312 315 313 315 319 321 317 314 312 310 311 309 304 308 301 301 297 290 278 280 282 276 273 261 251 247 240 226
304 308 310 309 311 313 312 304 308 313 315 314 314 314 314 318 323 318 309 309 312 310 308 308 308 308 307 303 300 289 288 291 292 287 285 283 276 274 270 263 250 239 227
306 306 302 301 304 313 314 314 317 318 318 315 316 318 318 317 317 315 308 308 294 301 301 293 293 302 300 301 305 302 290 279 275 286 279 268 261 260 261 256 250 244 238
306 309 309 307 309 314 315 317 318 316 314 319 322 320 317 314 311 311 317 319 316 318 317 318 313 305 308 310 308 308 307 301 291 279 253 255 257 257 258 257 253 245 239